Left ArrowRight Arrow

34.16533, -84.80231

Hourly Observations for June 17, 2024

Temp ( °F °C ) Dew Point ( °F °C ) Humidity (%) Winds ( mph kmh ) Pressure ( in mb ) Visibility ( mi km ) Precip ( " mm )
12:15 am 00:15 Clear with Mist and Fog 75 24 73 23 94 94 Calm 30.08 1019 6 10 0.00 0.00
12:35 am 00:35 Mostly Clear 75 24 73 23 94 94 Calm 30.08 1019 9 14 0.00 0.00
12:55 am 00:55 Clear with Mist and Fog 73 23 73 23 100 100 Calm 30.08 1019 5 8 0.00 0.00
1:15 am 01:15 Clear 75 24 73 23 94 94 Calm 30.08 1019 9 14 0.00 0.00
1:35 am 01:35 Mostly Clear 73 23 73 23 100 100 Calm 30.09 1019 7 11 0.00 0.00
1:55 am 01:55 Mostly Cloudy 73 23 73 23 100 100 Calm 30.09 1019 7 11 0.00 0.00
2:15 am 02:15 Mostly Cloudy with Mist and Fog 73 23 72 22 94 94 Calm 30.08 1019 6 10 0.00 0.00
2:35 am 02:35 Mostly Clear 73 23 72 22 94 94 Calm 30.08 1019 8 13 0.00 0.00
2:55 am 02:55 Clear 73 23 72 22 94 94 Calm 30.07 1018 7 11 0.00 0.00
3:15 am 03:15 Clear 73 23 72 22 94 94 Calm 30.07 1018 9 14 0.00 0.00
3:35 am 03:35 Clear 73 23 70 21 89 89 Calm 30.07 1018 10 16 0.00 0.00
4:15 am 04:15 Clear 73 23 70 21 89 89 Calm 30.07 1018 10 16 0.00 0.00
4:35 am 04:35 Clear 72 22 70 21 94 94 Calm 30.09 1019 8 13 0.00 0.00
4:55 am 04:55 Clear 73 23 70 21 89 89 Calm 30.08 1019 10 16 0.00 0.00
5:15 am 05:15 Clear 73 23 70 21 89 89 E 3 6 30.09 1019 10 16 0.00 0.00
5:35 am 05:35 Clear 73 23 70 21 89 89 Calm 30.10 1019 10 16 0.00 0.00
5:55 am 05:55 Clear 72 22 70 21 94 94 Calm 30.11 1020 9 14 0.00 0.00
6:15 am 06:15 Clear 70 21 70 21 100 100 Calm 30.12 1020 8 13 0.00 0.00
6:35 am 06:35 Sunny 72 22 70 21 94 94 Calm 30.12 1020 8 13 0.00 0.00
6:55 am 06:55 Sunny 70 21 70 21 100 100 Calm 30.13 1020 8 13 0.00 0.00
7:15 am 07:15 Sunny 72 22 70 21 94 94 Calm 30.13 1020 10 16 0.00 0.00
7:35 am 07:35 Sunny 73 23 70 21 89 89 Calm 30.13 1020 10 16 0.00 0.00
7:55 am 07:55 Sunny 75 24 70 21 83 83 E 5 7 30.13 1020 10 16 0.00 0.00
8:15 am 08:15 Sunny 77 25 70 21 79 79 E 5 7 30.14 1021 10 16 0.00 0.00
8:35 am 08:35 Sunny 79 26 70 21 74 74 E 6 9 30.15 1021 10 16 0.00 0.00
8:55 am 08:55 Mostly Sunny 79 26 70 21 74 74 ESE 5 7 30.15 1021 10 16 0.00 0.00
9:15 am 09:15 Sunny 79 26 70 21 74 74 ESE 8 13 30.14 1021 10 16 0.00 0.00
9:35 am 09:35 Sunny 81 27 72 22 74 74 Calm 30.14 1021 10 16 0.00 0.00
9:55 am 09:55 Sunny 82 28 72 22 70 70 VRB 6 9 30.13 1020 10 16 0.00 0.00
10:15 am 10:15 Sunny 82 28 70 21 66 66 SSE 3 6 30.13 1020 10 16 0.00 0.00
10:35 am 10:35 Mostly Sunny 82 28 70 21 66 66 VRB 5 7 30.13 1020 10 16 0.00 0.00
10:55 am 10:55 Mostly Sunny 84 29 70 21 62 62 VRB 5 7 30.13 1020 10 16 0.00 0.00
11:15 am 11:15 Sunny 84 29 70 21 62 62 E 7 11 30.13 1020 10 16 0.00 0.00
11:35 am 11:35 Sunny 86 30 68 20 55 55 SE 9 15 30.13 1020 10 16 0.00 0.00
11:55 am 11:55 Sunny 86 30 68 20 55 55 VRB 6 9 30.12 1020 10 16 0.00 0.00
12:15 pm 12:15 Mostly Sunny 88 31 68 20 52 52 ESE 10 17 30.12 1020 10 16 0.00 0.00
12:35 pm 12:35 Sunny 88 31 66 19 49 49 S 7 11 30.11 1020 10 16 0.00 0.00
12:55 pm 12:55 Partly Cloudy 88 31 68 20 52 52 E 8 13 30.11 1020 10 16 0.00 0.00
1:15 pm 13:15 Mostly Sunny 91 33 63 17 39 39 SSE 9 15 30.10 1019 10 16 0.00 0.00
1:35 pm 13:35 Sunny 91 33 63 17 39 39 ESE 8 13 30.09 1019 10 16 0.00 0.00
1:55 pm 13:55 Sunny 91 33 63 17 39 39 ESE 9 15 30.09 1019 10 16 0.00 0.00
2:15 pm 14:15 Sunny 93 34 63 17 36 36 SE 12 19 30.08 1019 10 16 0.00 0.00
2:35 pm 14:35 Sunny 93 34 63 17 36 36 SE 9 15 30.08 1019 10 16 0.00 0.00
2:55 pm 14:55 Sunny 93 34 64 18 39 39 SE 7 11 30.07 1018 10 16 0.00 0.00
3:15 pm 15:15 Mostly Sunny 93 34 64 18 39 39 SE 8 13 30.07 1018 10 16 0.00 0.00
3:35 pm 15:35 Mostly Sunny 91 33 64 18 41 41 VRB 6 9 30.06 1018 10 16 0.00 0.00
3:55 pm 15:55 Mostly Sunny 91 33 64 18 41 41 SSE 10 17 30.06 1018 10 16 0.00 0.00
4:15 pm 16:15 Sunny 93 34 64 18 39 39 SE 8 13 30.05 1018 10 16 0.00 0.00
4:35 pm 16:35 Mostly Sunny 93 34 64 18 39 39 SE 9 15 30.04 1017 10 16 0.00 0.00
4:55 pm 16:55 Mostly Sunny 91 33 64 18 41 41 SE 9 15 30.03 1017 10 16 0.00 0.00
5:15 pm 17:15 Sunny 93 34 63 17 36 36 SSE 9 15 30.03 1017 10 16 0.00 0.00
5:35 pm 17:35 Sunny 93 34 64 18 39 39 SE 8 13 30.02 1016 10 16 0.00 0.00
5:55 pm 17:55 Sunny 93 34 64 18 39 39 VRB 6 9 30.01 1016 10 16 0.00 0.00
6:15 pm 18:15 Sunny 91 33 64 18 41 41 ESE 6 9 30.01 1016 10 16 0.00 0.00
6:35 pm 18:35 Mostly Sunny 90 32 64 18 43 43 ESE 12 19 30.01 1016 10 16 0.00 0.00
6:55 pm 18:55 Mostly Sunny 90 32 64 18 43 43 ESE 7 11 30.01 1016 10 16 0.00 0.00
7:15 pm 19:15 Sunny 90 32 66 19 46 46 ESE 5 7 30.01 1016 10 16 0.00 0.00
7:35 pm 19:35 Mostly Sunny 90 32 66 19 46 46 ESE 7 11 30.01 1016 10 16 0.00 0.00
7:55 pm 19:55 Sunny 88 31 68 20 52 52 ESE 5 7 30.02 1017 10 16 0.00 0.00
8:15 pm 20:15 Partly Cloudy 88 31 68 20 52 52 ESE 3 6 30.02 1017 10 16 0.00 0.00
8:35 pm 20:35 Mostly Cloudy 86 30 68 20 55 55 SE 5 7 30.04 1017 10 16 0.00 0.00
8:55 pm 20:55 Mostly Clear 86 30 68 20 55 55 Calm 30.04 1017 10 16 0.00 0.00
9:15 pm 21:15 Clear 84 29 70 21 62 62 Calm 30.04 1017 10 16 0.00 0.00
9:35 pm 21:35 Clear 84 29 70 21 62 62 Calm 30.04 1017 10 16 0.00 0.00
9:55 pm 21:55 Clear 82 28 70 21 66 66 Calm 30.05 1018 10 16 0.00 0.00
10:15 pm 22:15 Mostly Cloudy 82 28 70 21 66 66 Calm 30.06 1018 10 16 0.00 0.00
10:35 pm 22:35 Partly Cloudy 81 27 70 21 70 70 Calm 30.07 1018 10 16 0.00 0.00
10:55 pm 22:55 Clear 79 26 70 21 74 74 E 5 7 30.09 1019 10 16 0.00 0.00
11:15 pm 23:15 Clear 81 27 70 21 70 70 ESE 6 9 30.08 1019 10 16 0.00 0.00
11:35 pm 23:35 Partly Cloudy 81 27 70 21 70 70 ESE 5 7 30.09 1019 10 16 0.00 0.00
11:55 pm 23:55 Mostly Cloudy 81 27 68 20 66 66 VRB 7 11 30.10 1019 10 16 0.00 0.00

Powered by Vaisala Xweather